This is the latest recevied weather packets stored in our database for station/object KM4KBD. If no packets are shown the sender has not sent any weather packets the latest 10 day(s).
| Time | Temp. | Humidity | Pressure | Rain* | Wind** | Luminosity | Snow |
|---|---|---|---|---|---|---|---|
| 1778045893 | 16.67° C | 80% | 1012.5 hPa | 0 mm | - | 0 W/m² | - |
| 1778045592 | 16.67° C | 80% | 1012.7 hPa | 0 mm | - | 0 W/m² | - |
| 1778045289 | 16.67° C | 80% | 1012.8 hPa | 0 mm | - | 0 W/m² | - |
| 1778044988 | 16.67° C | 79% | 1013 hPa | 0 mm | - | 0 W/m² | - |
| 1778044685 | 16.67° C | 79% | 1013.2 hPa | 0 mm | - | 0 W/m² | - |
| 1778044381 | 16.67° C | 79% | 1012.8 hPa | 0 mm | - | 0 W/m² | - |
| 1778044079 | 16.67° C | 79% | 1013.2 hPa | 0 mm | - | 0 W/m² | - |
| 1778043776 | 16.67° C | 80% | 1013.2 hPa | 0 mm | - | 0 W/m² | - |
| 1778043472 | 16.67° C | 79% | 1013.1 hPa | 0 mm | - | 0 W/m² | - |
| 1778043169 | 16.67° C | 80% | 1013.2 hPa | 0 mm | - | 0 W/m² | - |
| 1778042867 | 16.67° C | 80% | 1013.2 hPa | 0 mm | - | 0 W/m² | - |
| 1778042564 | 16.11° C | 81% | 1013.1 hPa | 0 mm | - | 0 W/m² | - |
| 1778042261 | 16.11° C | 81% | 1013.2 hPa | 0 mm | - | 0 W/m² | - |
| 1778041958 | 16.11° C | 82% | 1013.2 hPa | 0 mm | - | 0 W/m² | - |
| 1778041657 | 15.56° C | 83% | 1013 hPa | 0 mm | - | 0 W/m² | - |
| 1778041356 | 15.56° C | 83% | 1013.5 hPa | 0 mm | - | 0 W/m² | - |
| 1778041053 | 15.56° C | 83% | 1013.3 hPa | 0 mm | - | 0 W/m² | - |
| 1778040750 | 15.56° C | 83% | 1013.4 hPa | 0 mm | - | 0 W/m² | - |
| 1778040449 | 15.56° C | 83% | 1013.7 hPa | 0 mm | - | 0 W/m² | - |
| 1778040144 | 15.56° C | 83% | 1013.7 hPa | 0 mm | - | 0 W/m² | - |
| 1778039841 | 15.56° C | 83% | 1013.9 hPa | 0 mm | - | 0 W/m² | - |
| 1778039539 | 16.11° C | 81% | 1013.9 hPa | 0 mm | - | 0 W/m² | - |
| 1778039235 | 15.56° C | 83% | 1014.2 hPa | 0 mm | - | 0 W/m² | - |
| 1778038932 | 15.56° C | 86% | 1014.1 hPa | 1.78 mm | - | 0 W/m² | - |
| 1778038629 | 15.56° C | 85% | 1014.1 hPa | 3.05 mm | - | 0 W/m² | - |
* Rain latest hour (hover to see other rain measurements)
** Current wind speed in m/s (hover to see current wind gust speed)